THORAD AGENA D DEB, 4856

Orbit data source: Space-Track

THORAD AGENA D DEB, 4856 is space debris in SSO originally from a launch on Wed, 08 Apr 1970 UTC launched from the Air Force Western Test Range (AFWTR). Debris objects in space refer to the collection of defunct objects orbiting the Earth. Examples of debris include non-operational satellites, rocket bodies, and fragments generated from explosions, collisions, or faulty payload assembly.

Loading next visibility...
Identifier
4856, 1970-025EL
Orbit
SSO
Country
Flag of USUS
Related business
Manufacturer
Unknown
Mission
Spacecraft
Bus & Motor
Unknown
Mass
Unknown
Launch date (UTC)
1970-04-08 (56 years ago)
Launch vehicle
Unknown
Launch site
Air Force Western Test Range (AFWTR)
Object type
Payload
Rocket body
Debris
Shape & HBR
Unknown shape, 0.1 m
Radar Cross Section
Medium (>0.1 m² and <1 m²)

Expand to show TLE details & history
Last TLE update: 11 hours ago

TLE from 11 hours ago
0 THORAD AGENA D DEB
1  4856U 70025EL  26256.29820057  .00000328  00000-0  18976-3 0  9998
2  4856  99.7486  27.6647 0153175  79.4818 282.3566 14.10601174882835
Epoch: 2026-09-13T07:09Z
TLE epoch observation values (Epoch: 2026-09-13T07:09:24.529Z)
Latitude
-0.00003°
Longitude
-71.98236°
Altitude
838.089 km
Speed
7.445 km/s
True Right ascension
01h 50m 39s
True Declination
0° 00' 00"
Sunlit
Object was in full shadow at epoch
Visualization orbit readout
Latitude
Unknown
Longitude
Unknown
Altitude
Unknown
Speed
Unknown
Apparent Right ascension
Unknown
Apparent Declination
Unknown
Sunlit
N/A
Visualization observer readout
Local Sidereal Time
10:29:47
Azimuth
Unknown
Elevation
Unknown
Doppler factor
Unknown
Orbital elements
Apogee altitude
965.324 km
Perigee altitude
743.751 km
Semi-major axis
7,232.675 km
Eccentricity
0.01532
Inclination
99.7486°
RAAN
27.6647°
Arg. of periapsis
79.4818°
True anomaly
280.63521°
Mean anomaly
282.3566°
Eccentric anomaly
281.49658°
Mean motion
3.52854 °/min
Orbital period
102.03 mins
BSTAR
0.00018976

Documentation

Showing up to 5 results
|